Starlink 2613

operational
NORAD ID: 48353 Int'l Des: 2021-038 Owner: SPXS Country: US Constellation: starlink
LEOCIRCULARSTARLINK_TYPE

About Starlink 2613

Description loading...

Live Position

Loading 3D Globe...

Upcoming Passes

Altitude History

Altitude vs Time

uPlot chart will show altitude changes over time

Two-Line Element Set

1 48353U 21038A 25296.59583747 .00002804 00000-0 20701-3 0 9996
2 48353 53.0543 257.0574 0001334 97.7018 262.4122 15.06411085246369
Epoch: Oct 23, 2025 • Age: 12 hours

Current Status

Altitude 549.7 km
Velocity 7.59 km/s
Sub-Earth Point 38.82°N, 25.08°W
Launch Date May 4, 2021
Age 4.4 years
Type internet

Technical Details

Classification Payload
Mass 260.00 kg
Dry Mass 248.00 kg
Total Mass 260.00 kg
Length 0.20 m
Diameter 2.80 m
Span 9.00 m
Shape Box + pan
Manufacturer SPXS
Bus Type Starlink
Phase Status In Orbit
Owner/State SPXS/US

Large Constellations

Loading constellations...